Location: Boston
(42.3580°N, 71.0600°W)
Time: 21:09:34
(UTC-04:00)

Vanguard 2 Rocket - All Passes

Search period start: 26 April 2018 00:00
Search period end: 06 May 2018 00:00
Orbit: 553 x 3328 km, 32.9° (Epoch: 25 April)

Date Brightness Start Highest point End Pass type
(mag) Time Alt. Az. Time Alt. Az. Time Alt. Az.
26 Apr - 01:26:00 10° S 01:34:29 20° SE 01:45:27 10° E visible
26 Apr - 03:34:39 10° SW 03:48:16 47° SSE 04:06:47 10° E visible
26 Apr - 05:47:52 10° WSW 06:05:03 63° S 06:24:39 10° ESE daylight
26 Apr - 08:03:45 10° W 08:22:47 56° SSW 08:39:58 10° SE daylight
26 Apr - 10:22:24 10° W 10:38:35 32° SW 10:51:31 10° SSE daylight
27 Apr - 00:31:57 10° SE 00:35:02 11° SE 00:38:26 10° ESE visible
27 Apr - 02:35:56 10° SSW 02:47:35 38° SE 03:04:09 10° E visible
27 Apr - 04:47:47 10° WSW 05:03:16 60° SSE 05:23:04 10° E visible
27 Apr - 07:02:35 10° W 07:20:56 61° S 07:39:36 10° ESE daylight
27 Apr - 09:19:51 10° W 09:37:45 41° SSW 09:52:50 10° SSE daylight
27 Apr - 11:42:45 10° W 11:51:45 15° SW 11:59:34 10° SSW daylight
28 Apr - 01:37:57 10° S 01:47:29 28° SE 02:00:57 10° E visible
28 Apr - 03:48:14 10° SW 04:01:52 54° SSE 04:21:00 10° E visible
28 Apr - 06:01:57 10° WSW 06:18:59 63° S 06:38:39 10° ESE daylight
28 Apr - 08:18:02 10° W 08:36:26 49° SSW 08:53:24 10° SE daylight
28 Apr - 10:37:44 10° W 10:51:37 24° SW 11:03:21 10° S daylight
29 Apr - 00:41:07 10° SSE 00:47:55 18° SE 00:56:48 10° E visible
29 Apr - 02:49:13 10° SW 03:00:59 46° SSE 03:18:32 10° E visible
29 Apr - 05:01:48 10° WSW 05:17:10 63° S 05:37:07 10° ESE visible
29 Apr - 07:16:49 10° W 07:34:44 56° SSW 07:53:15 10° SE daylight
29 Apr - 09:34:36 10° W 09:50:59 33° SW 10:05:22 10° SSE daylight
30 Apr - 01:50:47 10° SSW 02:00:42 36° SE 02:15:41 10° E visible
30 Apr - 04:02:07 10° WSW 04:15:40 59° SSE 04:35:07 10° E visible
30 Apr - 06:16:08 10° W 06:32:54 60° S 06:52:27 10° ESE daylight
30 Apr - 08:32:30 10° W 08:49:53 41° SSW 09:06:21 10° SSE daylight
30 Apr - 10:54:31 10° W 11:04:32 16° SW 11:13:36 10° SSW daylight
01 May - 00:53:04 10° S 01:00:58 25° SE 01:12:24 10° E visible
01 May - 03:02:54 10° SW 03:14:38 53° SSE 03:32:43 10° E visible
01 May - 05:15:56 10° WSW 05:31:07 62° S 05:51:02 10° ESE daylight
01 May - 07:31:10 10° W 07:48:25 49° SSW 08:06:32 10° SE daylight
01 May - 09:50:00 10° W 10:04:06 25° SW 10:17:00 10° S daylight
01 May - 23:56:40 10° SSE 00:01:43 15° SE 00:08:09 10° E visible
02 May - 02:04:10 10° SW 02:14:09 44° SSE 02:30:03 10° E visible
02 May - 04:16:11 10° WSW 04:29:35 61° S 04:49:06 10° ESE visible
02 May - 06:30:25 10° W 06:46:45 55° SSW 07:05:59 10° SE daylight
02 May - 08:47:20 10° W 09:03:12 33° SW 09:18:41 10° SSE daylight
03 May - 01:05:57 10° SSW 01:14:15 33° SE 01:27:11 10° E visible
03 May - 03:16:50 10° WSW 03:28:28 57° SSE 03:46:47 10° E visible
03 May - 05:30:10 10° W 05:45:04 59° S 06:04:45 10° ESE daylight
03 May - 07:45:42 10° W 08:01:58 40° SSW 08:19:20 10° SSE daylight
03 May - 10:06:53 10° W 10:17:08 17° SW 10:26:57 10° SSW daylight
04 May - 00:08:29 10° S 00:14:52 22° SE 00:23:59 10° E visible
04 May - 02:17:54 10° SW 02:27:51 50° SSE 02:44:14 10° E visible
04 May - 04:30:22 10° WSW 04:43:35 60° S 05:02:58 10° ESE visible
04 May - 06:44:49 10° W 07:00:30 47° SSW 07:19:08 10° SE daylight
04 May - 09:02:50 10° W 09:16:27 24° SW 09:30:03 10° S daylight
04 May - 23:12:48 10° SSE 23:15:52 12° SE 23:19:29 10° ESE visible
05 May - 01:19:24 10° SW 01:27:46 41° SSE 01:41:34 10° E visible
05 May - 03:30:57 10° WSW 03:42:26 59° S 04:00:45 10° ESE visible
05 May - 05:44:30 10° W 05:58:59 53° SSW 06:18:11 10° SE daylight
05 May - 08:00:37 10° W 08:15:26 32° SW 08:31:26 10° SSE daylight
